Location: ????????
(56.1167°N, 38.6333°E)
Time: 16:11:47
(UTC+00:00)

Terra - Visible Passes

Search period start: 12 February 2026 00:00
Search period end: 22 February 2026 00:00
Orbit: 689 x 691 km, 98.0° (Epoch: 11 February)

Date Brightness Start Highest point End Pass type
(mag) Time Alt. Az. Time Alt. Az. Time Alt. Az.
12 Feb 3.5 15:34:24 13° ENE 15:35:36 14° NE 15:37:58 10° NNE visible
12 Feb 2.1 17:13:01 50° NNE 17:13:01 50° NNE 17:16:53 10° N visible
12 Feb 4.0 18:51:38 22° WNW 18:51:38 22° WNW 18:54:05 10° NW visible
13 Feb 2.9 16:13:36 23° ENE 16:14:00 23° NE 16:17:43 10° N visible
13 Feb 2.4 17:52:13 52° NW 17:52:13 52° NW 17:55:51 10° NNW visible
13 Feb 4.7 19:30:49 12° WNW 19:30:49 12° WNW 19:31:49 10° NW visible
14 Feb 3.8 15:15:11 10° NE 15:16:11 11° NE 15:17:11 10° NNE visible
14 Feb 2.2 16:52:47 41° ENE 16:52:47 41° ENE 16:57:01 10° N visible
14 Feb 3.4 18:31:23 31° WNW 18:31:23 31° WNW 18:34:35 10° NNW visible
15 Feb 3.3 15:53:21 17° ENE 15:54:30 18° NE 15:57:38 10° N visible
15 Feb 1.9 17:31:58 67° N 17:31:58 67° N 17:36:07 10° NNW visible
15 Feb 4.3 19:10:34 18° WNW 19:10:34 18° WNW 19:12:50 10° NW visible
16 Feb 2.6 16:32:31 30° ENE 16:33:00 31° ENE 16:37:07 10° N visible
16 Feb 2.7 18:11:08 46° WNW 18:11:08 46° WNW 18:14:58 10° NNW visible
17 Feb 3.6 15:33:05 11° ENE 15:35:02 14° NE 15:37:23 10° NNE visible
17 Feb 1.8 17:11:42 57° ENE 17:11:42 57° ENE 17:16:18 10° N visible
17 Feb 3.8 18:50:19 25° WNW 18:50:19 25° WNW 18:53:30 10° NW visible
18 Feb 3.0 16:12:16 21° ENE 16:13:26 23° NE 16:17:08 10° N visible
18 Feb 2.0 17:50:52 70° WNW 17:50:52 70° WNW 17:55:17 10° NNW visible
18 Feb 4.6 19:29:30 13° WNW 19:29:30 13° WNW 19:31:15 10° NW visible
19 Feb 3.8 15:14:38 10° NE 15:15:36 11° NE 15:16:35 10° NNE visible
19 Feb 2.2 16:51:27 40° E 16:52:01 41° ENE 16:56:27 10° N visible
19 Feb 3.2 18:30:03 36° W 18:30:03 36° W 18:34:00 10° NNW visible
20 Feb 3.3 15:52:00 14° E 15:53:54 18° NE 15:57:02 10° N visible
20 Feb 1.6 17:30:37 78° ESE 17:30:46 80° ENE 17:35:30 10° NNW visible
20 Feb 4.1 19:09:14 19° W 19:09:14 19° W 19:12:15 10° NW visible
21 Feb 2.6 16:31:11 27° E 16:32:23 31° ENE 16:36:31 10° N visible
21 Feb 2.4 18:09:47 52° W 18:09:47 52° W 18:14:22 10° NNW visible
